CZ-6A DEB

Satellite information

Favourite Embed

Satellite Type and Status

DEBRISIN ORBIT

Key statistics

Satellite CZ-6A DEB at a glance.

Uptime

1128

Days in orbit

Revolutions

≈ 14.3

Per day

Orbit

SSO

Sun Synchronous Orbit

Inclination

98.8

Latest

Satellite identification and parameters

Extended collection of information and parameters for CZ-6A DEB.

Object identification

Identified? True

Debris? True

Object name: CZ-6A DEB

International designator: 2022-151JW

Object number (NORAD): 54518

Object ID (CCSDS): 54518

Country: PEOPLES REPUBLIC OF CHINA (PRC)

Current information (Y/N): Y

RCS size: SMALL

Orbital parameters

Period: 100.732 minutes

Inclination: 98.7942 deg

SMA: 7171.436 km

Apoapsis: 883.396 km

Periapsis: 703.207 km

RAAN: 19.1084 deg

Eccentricy: 0.01256294

Argument of periapsis: 302.1544 deg

Mean anomaly: 56.7499 deg

Mean motion: 14.29530918 rev/day

Mean motion (dot): 0.00001482 rev/day2

B* drag term: 0.00054952981 1/REarth

Two-line elements (TLE)

Creation date: Dec. 12, 2025, 10:14 a.m.

Reference frame: TEME

Reference center: EARTH

Epoch: Dec. 12, 2025, 1:15 a.m. UTC

TLE line 0: 0 CZ-6A DEB

TLE line 1: 1 54518U 22151JW 25346.05240668 .00001482 00000-0 54953-3 0 9999

TLE line 2: 2 54518 98.7942 19.1084 0125629 302.1544 56.7499 14.29530918160358

Live tracking on map

Real-time ground track for satellite CZ-6A DEB.

In-orbit conjunctions

A list of the most updated potential collisions computed for object CZ-6A DEB.

Target Orbit TCA Probability of collision Miss distance Type
CZ-4 DEB SSO 2025-03-25 19:01:03 0.0002402041 36.0 (m) DEBRIS
DMSP 5D-2 F13 DEB SSO 2024-11-15 12:46:59 0.0002844926 731.0 (m) DEBRIS

Associated space launch

Chinese satellite reported for atmospheric/ocean/environmental/spatial parameter research purposes, details TBD.

CZ-6A DEB was lifted into orbit during the mission ‘Long March 6A | Yunhai 3’, on board a Long March 6A space rocket.

The launch took place on Nov. 11, 2022, 10:52 p.m. from Launch Complex 9A.

For more information about the launch, click the button.

Launch to space Long March 6A | Yunhai 3
Long March 6A | Yunhai 3

Agency: N/A

Status: Launch Successful

Launch date: Nov. 11, 2022, 10:52 p.m. UTC

Rocket: Long March 6A

Launch pad: Launch Complex 9A

Location: Taiyuan Satellite Launch Center, People's Republic of China

...

Latest news about this satellite

There are no fresh news available about this satellite. Check back as we update our databases every day.


Newsletter sign-up

Weekly statistics, charts and insights to help you stay on top of the space industry.